Hourly Weather Roundup
Issued by NWS Central Illinois

Home | Current Version | Previous Version | Text Only | Print | Product List | Glossary On
Versions: 1 2 3 4 5 6 7 8 9 10 11 12 13 14 15 16 17 18 19 20 21 22 23 24 25 26 27 28 29 30 31 32 33 34 35 36 37 38 39 40 41 42 43 44 45 46 47 48 49 50
000
NZUS43 KILX 051910
HWRILX

AREA WEATHER ROUNDUP
NATIONAL WEATHER SERVICE, LINCOLN IL
200 PM CDT SUN JUL 05 2015


CITY           SKY/WX    TMP DP  RH WIND       PRES   REMARKS
BLOOMINGTON    MOSUNNY   81  65  58 S8        30.09F HX  83
CHAMPAIGN      MOSUNNY   82  64  54 SW5       30.08F HX  83
DANVILLE       SUNNY     80  64  56 CALM      30.05F HX  82
DECATUR        PTSUNNY   80  63  55 VRB3      30.08F HX  81
EFFINGHAM      MOSUNNY   83  60  46 S6        30.09S HX  83
FLORA          MOSUNNY   82  65  57 SE3       30.07F HX  84
GALESBURG      MOSUNNY   81  66  60 S8        30.04F HX  83
JACKSONVILLE   PTSUNNY   83  69  61 SE6       30.04F HX  86
LACON          MOSUNNY   82  63  53 SW7       30.05S HX  83
LAWRENCEVILLE  PTSUNNY   83  69  62 E5        30.06F HX  86
LITCHFIELD     MOSUNNY   82  64  55 CALM      30.07S HX  83
$$


CITY           SKY/WX    TMP DP  RH WIND       PRES   REMARKS
LINCOLN        MOSUNNY   82  63  52 S8        30.06F HX  83
MACOMB         MOSUNNY   82  69  65 S5        30.05F HX  85
MATTOON        MOSUNNY   80  66  62 SE7       30.07F HX  82
MT CARMEL AP   MOSUNNY   86  64  48 SE3       30.06F HX  87
OLNEY-NOBLE AP MOSUNNY   82  66  57 CALM      30.07F HX  85
PARIS          MOSUNNY   81  66  60 S3        30.08S HX  83
PEORIA         MOSUNNY   83  62  49 SE6       30.05F HX  84
PONTIAC        SUNNY     81  65  58 S7        30.08F HX  83
RANTOUL        SUNNY    N/A N/A N/A CALM      30.08F
ROBINSON       PTSUNNY   82  65  55 CALM      30.07F HX  84
SPRINGFIELD    MOSUNNY   83  65  54 CALM      30.06F HX  85
TAYLORVILLE    SUNNY     81  64  57 SW5       30.07F HX  82
$$

...REGIONAL REPORTS...


CITY           SKY/WX    TMP DP  RH WIND       PRES   REMARKS
CHICAGO O`HARE MOSUNNY   82  59  45 CALM      30.05F HX  82
KANKAKEE       SUNNY     83  64  53 S6        30.08F HX  84
MOLINE         MOSUNNY   82  66  58 S10       30.02F HX  84
MOUNT STERLING NOT AVBL
MOUNT VERNON   MOSUNNY   84  64  51 CALM      30.08S HX  86
PITTSFIELD     MOSUNNY   84  69  60 S6        30.05S HX  87
QUINCY         MOSUNNY   84  69  60 S9        30.02F HX  88
ROCKFORD       MOSUNNY   82  64  54 SW9       30.06F HX  83
$$


CITY           SKY/WX    TMP DP  RH WIND       PRES   REMARKS
BURLINGTON     MOSUNNY   83  71  67 S9        30.01F HX  87
CEDAR RAPIDS   PTSUNNY   81  68  64 S12       29.99F HX  84
DES MOINES     CLOUDY    86  70  58 SE15      29.93F HX  90
KIRKSVILLE     PTSUNNY   84  68  58 S12       30.01F HX  87
OTTUMWA        PTSUNNY   82  70  66 S10       29.96F HX  86
ST LOUIS       MOSUNNY   87  66  49 SW5       30.05F HX  89
$$


CITY           SKY/WX    TMP DP  RH WIND       PRES   REMARKS
TERRE HAUTE    MOSUNNY   83  65  54 E3        30.07F HX  85
EVANSVILLE     PTSUNNY   82  69  64 E3        30.07S HX  85
INDIANAPOLIS   PTSUNNY   79  59  50 E6        30.07F HX  80
LAFAYETTE      MOSUNNY   80  62  54 S3        30.07F HX  81
MADISON        MOSUNNY   81  62  52 S13       30.02F HX  82
MILWAUKEE      MOSUNNY   80  61  52 SE15      30.05F HX  81
$$




USA.gov is the U.S. government's official web portal to all federal, state and local government web resources and services.